Other Public Products
Issued by NWS Grand Forks, ND

Home | Current Version | Previous Version | Graphics & Text | Print | Product List | Glossary On
Versions: 1 2 3 4 5 6 7 8 9 10 11 12 13 14 15 16 17 18 19 20 21 22 23 24 25 26 27 28 29 30 31 32 33 34 35 36 37 38 39 40 41 42 43 44 45 46 47 48 49 50
000
FPUS83 KFGF 261510
OPUFGF
PRAIRIE TO PINES WEATHER ROUNDUP
NATIONAL WEATHER SERVICE EASTERN NORTH DAKOTA/GRAND FORKS ND
900 AM CST SUN FEB 26 2017

 **SATELLITE DATA USED TO AUGMENT SKY COVER AT AUTOMATED STATIONS**
 *****  WEATHER ACROSS EASTERN NORTH DAKOTA  *****

CITY           SKY/WX    TMP DP  RH WIND       PRES   REMARKS
GRAND FORKS    FAIR       7  -2  66 W9        29.82R WCI  -7
GRAND FORKS AF FAIR       8   1  73 W7        29.82R WCI  -4
GRAND CITY NWS NOT AVBL
BUXTON         NOT AVBL
DEVILS LAKE    FAIR      -2  -6  84 W6        29.79R FOG     WCI -14
FARGO          FAIR      12   7  80 NW7       29.83R WCI   1
WAHPETON ARPT    N/A     14  12  92 NW10      29.83R WCI   1
$$

 *****  WEATHER ACROSS CENTRAL AND WESTERN NORTH DAKOTA  *****

CITY           SKY/WX    TMP DP  RH WIND       PRES   REMARKS
JAMESTOWN      FAIR      13   8  81 CALM      29.78R
BISMARCK       CLOUDY    14   9  80 S6        29.78S WCI   5
MINOT          FLURRIES   5   1  83 SW9       29.75R WCI  -9
MINOT AFB      FAIR       4   0  84 W5        29.75R WCI  -6
GARRISON         N/A      8   5  87 CALM      29.74R
WILLISTON      LGT SNOW  13  10  88 NE5       29.72S FOG     WCI   5
DICKINSON      PTSUNNY   16  14  92 S7        29.65S WCI   6
HETTINGER      FAIR      17  13  84 W5        29.71R WCI  10
$$

 *****  OTHER OBSERVATIONS NORTHEAST NORTH DAKOTA  *****

CITY           SKY/WX    TMP DP  RH WIND       PRES   REMARKS
WALHALLA       NOT AVBL
LANGDON        NOT AVBL
CAVALIER         N/A      7   0  72 W5        29.80S WCI  -2
GRAFTON        FAIR       7   1  78 W5        29.83S WCI  -2
CANDO          NOT AVBL
FORT TOTTEN      N/A      7   5  92 W2        29.95S
ROLLA          FAIR       5   1  85 W3        29.73R
RUGBY            N/A     -4  -9  77 S3        29.77R FOG
 ***** THE ABOVE OBSERVATIONS ARE NON NWS ARE NOT QUALITY
        CONTROLLED AND MAY MIS-REPORT RAIN FOR SNOW...
$$

 *****  OTHER OBSERVATIONS SOUTHEAST NORTH DAKOTA *****

CITY           SKY/WX    TMP DP  RH WIND       PRES   REMARKS
COOPERSTOWN    FAIR      -6  -9  84 W5        29.79R WCI -17
VALLEY CITY    FAIR      14  10  85 NW5       29.82R WCI   6
OAKES          NOT AVBL
GWINNER        CLOUDY    18  12  79 N9        29.82R WCI   6
SHEYENNE NWR     N/A     14   6  71 N7        29.95S WCI   4
BUFFALO        NOT AVBL
WYNDMERE       NOT AVBL
 ***** THE ABOVE OBSERVATIONS ARE NON NWS ARE NOT QUALITY
       CONTROLLED AND MAY MIS-REPORT RAIN FOR SNOW...
$$

  *****  WEATHER ACROSS NORTHERN MINNESOTA  *****

CITY           SKY/WX    TMP DP  RH WIND       PRES   REMARKS
FLAG ISLAND    FAIR       5   0  78 NW5       29.73R WCI  -4
WARROAD        FAIR       7   1  78 W3        29.76R
ROSEAU         FAIR       7   3  85 W7        29.76R WCI  -5
HALLOCK        FAIR       3   0  85 CALM      29.80R
THF RVR FALLS  FAIR      10   5  80 CALM        N/A
HALSTAD          N/A     10   5  79 NW6         N/A  WCI   1
FOSSTON        FLURRIES  10   3  72 NW5       29.78R WCI   2
BAUDETTE       FAIR       7  -1  70 NW8       29.73R WCI  -6
WASKISH        FAIR       9   3  78 W5        29.75R WCI   0
CROOKSTON      FAIR      10   5  79 NW8       29.83R WCI  -1
$$
  *****  WEATHER ACROSS CENTRAL AND WEST MINNESOTA  *****

CITY           SKY/WX    TMP DP  RH WIND       PRES   REMARKS
BEMIDJI        FLURRIES  10   5  80 N10       29.74R WCI  -4
PARK RAPIDS    PTSUNNY   16   7  67 N9        29.72R WCI   4
WADENA         FAIR      16  12  86 NW5       29.73R WCI   9
DETROIT LAKES  LGT SNOW  14  12  92 N12       29.77R WCI   0
MOORHEAD       FAIR      10   7  85 NW9       29.83R WCI  -2
FERGUS FALLS   FAIR      10  10 100 NW9       29.84R WCI  -2
ELBOW LAKE     FAIR      13  12  94 NW9       29.78R WCI   1
MORRIS MN      FAIR      19  16  86 NW21      29.78R WCI   3
STAPLES        FLURRIES  18  18 100 N13       29.72R WCI   4
WHEATON        FAIR      16  10  79 NW15      29.84R WCI   1
$$
  *****  WEATHER ELSEWHERE ACROSS MINNESOTA  *****

CITY           SKY/WX    TMP DP  RH WIND       PRES   REMARKS
DULUTH         LGT SNOW  25  22  88 SW13      29.61S VSB 1   WCI  14
INTRNTL FALLS  FAIR       9   0  67 NW9       29.71R WCI  -4
ELY            LGT SNOW  14  10  85 W5        29.64R VSB 1   WCI   6
CLOQUET        LGT SNOW  25  21  86 SW6       29.63R WCI  18
BRAINERD       LGT SNOW  21  17  84 N20G25    29.71R FOG     WCI   6
HIBBING        LGT SNOW  13  10  88 NW12      29.66R VSB 1   WCI  -1
ALEXANDRIA     FAIR      24  18  77 NW18G25   29.73R WCI  10
SAINT CLOUD    FAIR      29  24  82 W13       29.71R WCI  19
MINNEAPOLIS    PTSUNNY   26  18  71 SW9       29.76R WCI  17
$$

  *****  WEATHER ACROSS SOUTH DAKOTA  *****

CITY           SKY/WX    TMP DP  RH WIND       PRES   REMARKS
SIOUX FALLS    FAIR      24  18  77 W13       29.82R WCI  12
BROOKINGS      FAIR      27  23  85 NW13      29.78R WCI  16
WATERTOWN      FAIR      24  20  84 NW12      29.77R WCI  13
HURON          FAIR      26  22  84 N10       29.83R WCI  16
SISSETON         N/A     17  13  84 N14       29.82R WCI   3
ABERDEEN       FAIR      19  14  81 N12       29.83R WCI   7
MITCHELL       FAIR      27  22  81 W9        29.85R WCI  18
PIERRE         FAIR      23  18  81 SW10      29.80R WCI  12
MOBRIDGE       PTSUNNY   20  14  77 VRB3      29.76R
RAPID CITY     FAIR      23  12  62 SW6       29.77R WCI  16
$$

  *****  SOME WEATHER IN NEARBY STATES *****

CITY           SKY/WX    TMP DP  RH WIND       PRES   REMARKS
GLASGOW MT     LGT SNOW  17  13  84 N6        29.70R FOG     WCI   9
GREAT FALLS MT LGT SNOW  23  20  88 NE10      29.72S FOG     WCI  12
CHEYENNE WY    FAIR      18   0  45 W17       29.76R WCI   3
SCOTTSBLUFF NE FAIR      10   1  67 N5        29.84R WCI   2
OMAHA NE       FAIR      36  18  48 W12       29.92R
DES MOINES IA  FAIR      35  24  64 SW9       29.91R
DAVENPORT IA   FAIR      35  20  54 SW18      29.95R WCI  24
CHICAGO IL     PTSUNNY   33  16  49 S17G26    29.99S WCI  22
EAU CLAIRE WI  FAIR      26  18  71 SW10      29.75R WCI  16
LA CROSSE WI   PTSUNNY   32  21  64 S5        29.81R
$$

  *****  SOME NATIONAL WEATHER *****

CITY           SKY/WX    TMP DP  RH WIND       PRES   REMARKS
LA GUARDIA NY  FAIR      40  18  41 NW24G33   29.98R
RALEIGH NC     FAIR      44  15  31 VRB5      30.20R
ATLANTA GA     FAIR      45  19  35 N10       30.22R
NEW ORLEANS LA FAIR      55  40  56 E14       30.18R
OKLAHOMA CITY  CLOUDY    43  26  51 S16       29.93R
ALBUQUERQUE NM PTSUNNY   35  22  58 N8        29.96R
SALT LAKE CITY FAIR      23  16  74 SE13      29.94S WCI  11
LOS ANGELES CA LGT RAIN  48  45  89 E6        30.00R
BOISE ID       CLOUDY    30  16  56 SE15      29.82F WCI  19
SEATTLE WA     LGT RAIN  37  34  89 SE10      29.69F
$$

*** WEATHER ACROSS MANITOBA...SASKATCHEWAN AND ONTARIO ***
                ***ONTARIO***

CITY           SKY/WX    TMP DP  RH WIND       PRES   REMARKS
GERALDTON      LGT SNOW   7   3  85 VRB2      29.59F
THUNDER BAY    CLOUDY    19  12  73 W9        29.65S WCI   9
SIOUX LOOKOUT  FLURRIES   5  -2  72 NW10G17   29.64R WCI -10
TORONTO        MOSUNNY   30  14  51 W22       30.02R WCI  17
BIG TROUT LK   FLURRIES  -4  -9  77 W8        29.58S WCI -19
PICKLE LAKE    FLURRIES   3  -6  66 W3        29.57S
DRYDEN         FLURRIES   5  -2  72 NW15G21   29.65S WCI -13
KENORA         NOT AVBL
$$
                *** MANITOBA***

CITY           SKY/WX    TMP DP  RH WIND       PRES   REMARKS
BRANDON        PTSUNNY   -6  -9  84 W6        29.75R WCI -18
DAUPHIN        MOSUNNY    9   3  78 W9        29.71S WCI  -5
ISLAND LAKE    CRYSTALS  -8 -13  77 W6        29.66R WCI -21
PILOT MOUND      N/A     -2  -6  84 W5          N/A  WCI -12
THE PAS        FLURRIES   0  -6  78 E3        29.65S
THOMPSON       MOSUNNY  -17 -22  76 N7        29.70R WCI -33
WINNIPEG       MOSUNNY    3  -2  78 W10       29.78R WCI -12
LYNN LAKE      CLEAR    -18 -24  76 N6        29.70R WCI -33
CHURCHILL      CRYSTALS -20 -26  76 NW14      29.70R WCI -44
GILLAM         FLURRIES -18 -24  76 W8        29.67S WCI -37
$$
                ***SASKATCHEWAN***

CITY           SKY/WX    TMP DP  RH WIND       PRES   REMARKS
ESTEVAN        CRYSTALS   7   5  92 SW7       29.72R WCI  -5
KINDERSLEY     CLOUDY    16  12  86 NW9       29.74R WCI   4
LLOYDMINSTER   LGT SNOW   9   3  78 N21G29    29.77R DRFTSNOWWCI -11
PRINCE ALBERT  CLOUDY    10   1  67 NW10G18   29.72R WCI  -3
REGINA         LGT SNOW  18  14  86 W12       29.68S WCI   5
YORKTON        FLURRIES  10   7  85 W8        29.65S WC



USA.gov is the U.S. government's official web portal to all federal, state and local government web resources and services.